User: anonymous   Login
Location: Newark
(29.9790°N, 31.1340°E)
Time: 13:26:53
(UTC+00:00)
Language:

SR - Orbit

View from above orbital plane
View from above orbital plane
View from above satellite
View from above satellite

Ground track
Ground track

The orbit data is extracted from the following two-line orbital elements,

1    46U 60007B   20023.64685853 -.00000017  00000-0  19786-4 0  9999
2    46  66.6905  80.4836 0216673 240.8897 117.0366 14.49270461117973
Epoch (UTC): 23 January 2020 15:31:28
Eccentricity: 0.0216673
inclination: 66.6905°
perigee height: 574 km
apogee height: 882 km
right ascension of ascending node: 80.4836°
argument of perigee: 240.8897°
revolutions per day: 14.49270461
mean anomaly at epoch: 117.0366°
orbit number at epoch: 11797

The dashed part of the orbit path shows where the satellite is in the earth's shadow,  

DLR